Погода в Лысой Горе

Украина / Николаевская область     48°10′31″N   31°05′33″E
темп.,
°C
ветер,
м/с
пор.,
м/с
влажн.,
%
обл.,
%
осадки,
мм/ч
давл.,
гПа
погр.,
м
15 мая, сб
сб1500:00+11ююз36925 0.0 1009104
03:00+10ююз349323 0.1 100971
06:00+10юз239126 0.0 101050
09:00+16юз33732 0.0 1011439
12:00+20юз45534 0.0 10111624
15:00+21юз5745100 0.0 10112388
18:00+19з465876 0.0 1012766
21:00+15с01688 0.0 101211
16 мая, вс
вс1600:00+14в11743 0.0 101311
03:00+12ююв22895 0.0 101324
06:00+12юв228616 0.0 101215
09:00+18вюв2365100 0.0 1013403
12:00+22в3451100 0.0 10121355
15:00+24вюв4442100 0.0 10102095
18:00+23вюв3448100 0.0 1009579
21:00+18ссв2355100 0.0 100818
17 мая, пн
пн1700:00+17св3871100 0.0 1007171
03:00+16всв61276100 0.1 1006365
06:00+15св4697100 9.3 1005189
09:00+19с687947 10.6 1004504
12:00+22с566896 1.4 10031280
15:00+19ссз6881100 5.5 1002622
18:00+17ссз81289100 2.6 1002674
21:00+15зсз5897100 9.3 1002474
18 мая, вт
вт1800:00+14зсз479789 26.6 1003254
03:00+12юз35964 26.7 1004120
06:00+12ююв339719 0.1 100372
09:00+17ююв578398 1.4 1003546
12:00+21юз686627 0.1 10031385
15:00+17зсз7883100 5.4 1004775
18:00+16зсз5778100 2.9 1005690
21:00+13зсз488889 3.3 1007261
19 мая, ср
ср1900:00+12з3991100 0.1 1008324
03:00+11з499276 0.2 1009225
06:00+10зсз4993100 0.0 1010254
09:00+14зсз5776100 0.0 1011648
12:00+16зсз6762100 0.1 10121361
15:00+18зсз5654100 0.1 10121788
18:00+17зсз466197 0.1 1012733
21:00+13ссз3372100 0.1 101336